Location: Bothwell
(42.3833°S, 147.0000°E)
Time: 20:27:11
(UTC+11:00)

AO-85 - Pass Details

Date: 30 September 2022
Orbit: 513 x 757 km, 64.8° (Epoch: 24 November)

Event Time Altitude Azimuth Distance (km) Brightness Sun altitude
Rises 03:40:44 0° 203° (SSW) 3,066 ? -23.4°
Reaches altitude 10° 03:43:51 10° 182° (S) 2,193 ? -22.8°
Maximum altitude 03:47:06 17° 142° (SE) 1,809 ? -22.3°
Drops below altitude 10° 03:50:24 10° 102° (ESE) 2,261 ? -21.8°
Sets 03:53:41 0° 82° (E) 3,205 ? -21.2°
